Weather History for West Palm Beach, FL

Change the Weather History Date:

Tuesday, November 16, 2010

  Actual Average Record
Temperature  
Mean Temperature 75 °F 73 °F  
Max Temperature 85 °F 80 °F 88 °F (1980)
Min Temperature 64 °F 65 °F 40 °F (1940)
Degree Days  
Heating Degree Days 0 0  
Month to date heating degree days 9 0  
Since 1 July heating degree days 9 1  
Cooling Degree Days 10 8  
Month to date cooling degree days 114 145  
Year to date cooling degree days 3882 3766  
Growing Degree Days 23 (Base 50)    
Moisture  
Dew Point 63 °F    
Average Humidity 66    
Maximum Humidity 84    
Minimum Humidity 47    
Precipitation  
Precipitation 0.00 in 0.17 in 3.89 in (1994)
Month to date precipitation 1.08 2.84  
Year to date precipitation 51.79 57.04  
Snow  
Snow 0.00 in - - ()
Month to date snowfall 0.0  
Since 1 July snowfall 0.0  
Since 1 September snowfall 0.0  
Snow Depth 0.00 in    
Sea Level Pressure  
Sea Level Pressure 29.93 in    
Wind  
Wind Speed 6 mph (South)    
Max Wind Speed 17 mph    
Max Gust Speed 21 mph    
Visibility 10 miles    
Events      
T = Trace of Precipitation, MM = Missing Value Source: NWS Daily Summary

Daily Weather History Graph

Daily Weather History Graph

Search for Another Location

Airport:

Trip Planner

Search our weather history database for the weather conditions in past years. The results will help you decide how hot, cold, wet, or windy it might be!

Date:

Astronomy

Nov. 16, 2010 Rise Set
Actual Time 6:40 AM EST 5:29 PM EST
Civil Twilight 6:15 AM EST 5:54 PM EST
Nautical Twilight 5:47 AM EST 6:22 PM EST
Astronomical Twilight 5:20 AM EST 6:49 PM EST
Moon 2:14 PM EST (11/16) 2:05 AM EST (11/16)
Length of Visible Light 11h 38m
Length of Day
10h 49m
Waxing Gibbous, 77% of the Moon is Illuminated
Nov 16
Waxing Gibbous
Nov 21
Full
Nov 28
Last Quarter
Dec 5
New
Dec 13
First Quarter

Hourly Weather History & Observations

Time (EST) Temp. Heat Index Dew Point Humidity Pressure Visibility Wind Dir Wind Speed Gust Speed Precip Events Conditions
12:53 AM 66.9 °F - 59.0 °F 76% 29.94 in 10.0 mi Calm Calm - N/A   Mostly Cloudy
1:53 AM 64.9 °F - 59.0 °F 81% 29.92 in 10.0 mi Calm Calm - N/A   Partly Cloudy
2:53 AM 64.9 °F - 59.0 °F 81% 29.91 in 10.0 mi Calm Calm - N/A   Mostly Cloudy
3:53 AM 66.0 °F - 60.1 °F 81% 29.90 in 10.0 mi Calm Calm - N/A   Scattered Clouds
4:53 AM 68.0 °F - 61.0 °F 78% 29.89 in 10.0 mi South 3.5 mph - N/A   Partly Cloudy
5:53 AM 68.0 °F - 62.1 °F 81% 29.90 in 10.0 mi South 4.6 mph - N/A   Partly Cloudy
6:53 AM 68.0 °F - 63.0 °F 84% 29.92 in 10.0 mi WSW 3.5 mph - N/A   Partly Cloudy
7:53 AM 72.0 °F - 64.9 °F 78% 29.95 in 10.0 mi Calm Calm - N/A   Partly Cloudy
8:53 AM 77.0 °F - 64.9 °F 66% 29.96 in 10.0 mi SW 8.1 mph - N/A   Partly Cloudy
9:53 AM 80.1 °F 81.5 °F 63.0 °F 56% 29.97 in 10.0 mi SSW 11.5 mph - N/A   Partly Cloudy
10:53 AM 82.0 °F 83.0 °F 62.1 °F 51% 29.96 in 10.0 mi South 9.2 mph - N/A   Scattered Clouds
11:53 AM 82.0 °F 82.4 °F 60.1 °F 47% 29.93 in 10.0 mi SSW 9.2 mph - N/A   Scattered Clouds
12:53 PM 82.9 °F 83.3 °F 61.0 °F 47% 29.90 in 10.0 mi South 6.9 mph - N/A   Mostly Cloudy
1:53 PM 82.9 °F 84.0 °F 63.0 °F 51% 29.89 in 10.0 mi SSE 8.1 mph - N/A   Mostly Cloudy
2:53 PM 81.0 °F 82.2 °F 63.0 °F 54% 29.88 in 10.0 mi SSE 11.5 mph - N/A   Scattered Clouds
3:53 PM 80.1 °F 81.7 °F 64.0 °F 58% 29.89 in 10.0 mi SSE 11.5 mph - N/A   Scattered Clouds
4:53 PM 78.1 °F - 64.9 °F 64% 29.90 in 10.0 mi South 10.4 mph - N/A   Scattered Clouds
5:53 PM 77.0 °F - 66.0 °F 69% 29.91 in 10.0 mi South 9.2 mph - N/A   Scattered Clouds
6:53 PM 75.9 °F - 66.0 °F 71% 29.94 in 10.0 mi South 5.8 mph - N/A   Partly Cloudy
7:53 PM 75.0 °F - 64.0 °F 69% 29.95 in 10.0 mi SSW 4.6 mph - N/A   Partly Cloudy
8:53 PM 73.9 °F - 63.0 °F 68% 29.97 in 10.0 mi SSW 6.9 mph - N/A   Partly Cloudy
9:53 PM 72.0 °F - 63.0 °F 73% 29.98 in 10.0 mi South 3.5 mph - N/A   Partly Cloudy
10:53 PM 70.0 °F - 63.0 °F 78% 29.99 in 10.0 mi South 5.8 mph - N/A   Partly Cloudy
11:53 PM 70.0 °F - 62.1 °F 76% 29.99 in 10.0 mi Calm Calm - N/A   Partly Cloudy